owner,sensor,date,latitude,longitude,vertical_datum,direction_of_sea_water_velocity,sea_water_speed,upward_sea_water_velocity,qcFlag 
TABS,ioos:station:wmo:42050:1,2011-09-01T00:00:00Z,28.8425,-94.2433,2.0,340.6486526,3.953353007,-99999.0,'11133222,11111222,99999999' 
TABS,ioos:station:wmo:42050:1,2011-09-01T00:30:00Z,28.8425,-94.2433,2.0,212.1369634,0.921140597,-99999.0,'11133222,11111222,99999999' 
TABS,ioos:station:wmo:42050:1,2011-09-01T01:00:00Z,28.8425,-94.2433,2.0,283.799874,1.760823671,-99999.0,'11133222,11111222,99999999' 
TABS,ioos:station:wmo:42050:1,2011-09-01T01:30:00Z,28.8425,-94.2433,2.0,195.1817603,2.061965082,-99999.0,'11133222,11111222,99999999' 
TABS,ioos:station:wmo:42050:1,2011-09-01T02:00:00Z,28.8425,-94.2433,2.0,215.4146373,4.883574511,-99999.0,'11133222,11111222,99999999' 
TABS,ioos:station:wmo:42050:1,2011-09-01T02:30:00Z,28.8425,-94.2433,2.0,256.158916,4.263801121,-99999.0,'11133222,11111222,99999999' 
TABS,ioos:station:wmo:42050:1,2011-09-01T03:00:00Z,28.8425,-94.2433,2.0,228.9556535,6.457127844,-99999.0,'11133222,11111222,99999999' 
TABS,ioos:station:wmo:42050:1,2011-09-01T03:30:00Z,28.8425,-94.2433,2.0,244.5405462,5.792495145,-99999.0,'11133222,11111222,99999999' 
TABS,ioos:station:wmo:42050:1,2011-09-01T04:00:00Z,28.8425,-94.2433,2.0,256.6393919,5.755771017,-99999.0,'11133222,11111222,99999999' 
TABS,ioos:station:wmo:42050:1,2011-09-01T04:30:00Z,28.8425,-94.2433,2.0,275.5501874,7.444897582,-99999.0,'11133222,11111222,99999999' 
TABS,ioos:station:wmo:42050:1,2011-09-01T05:00:00Z,28.8425,-94.2433,2.0,276.2017643,5.924668767,-99999.0,'11133222,11111222,99999999' 
TABS,ioos:station:wmo:42050:1,2011-09-01T05:30:00Z,28.8425,-94.2433,2.0,308.7911832,6.145453604,-99999.0,'11133222,11111222,99999999' 
TABS,ioos:station:wmo:42050:1,2011-09-01T06:00:00Z,28.8425,-94.2433,2.0,297.87311,6.074742793,-99999.0,'11133222,11111222,99999999' 
TABS,ioos:station:wmo:42050:1,2011-09-01T06:30:00Z,28.8425,-94.2433,2.0,301.1489291,5.3164838,-99999.0,'11133222,11111222,99999999' 
TABS,ioos:station:wmo:42050:1,2011-09-01T07:00:00Z,28.8425,-94.2433,2.0,342.2555803,7.087178564,-99999.0,'11133222,11111222,99999999' 
TABS,ioos:station:wmo:42050:1,2011-09-01T07:30:00Z,28.8425,-94.2433,2.0,341.796853,7.042449858,-99999.0,'11133222,11111222,99999999' 
TABS,ioos:station:wmo:42050:1,2011-09-01T08:00:00Z,28.8425,-94.2433,2.0,303.5237723,5.721756723,-99999.0,'11133222,11111222,99999999' 
TABS,ioos:station:wmo:42050:1,2011-09-01T08:30:00Z,28.8425,-94.2433,2.0,2.537663606,5.195093839,-99999.0,'11133222,11111222,99999999' 
TABS,ioos:station:wmo:42050:1,2011-09-01T09:00:00Z,28.8425,-94.2433,2.0,18.57823572,3.797907319,-99999.0,'11133222,11111222,99999999' 
TABS,ioos:station:wmo:42050:1,2011-09-01T09:30:00Z,28.8425,-94.2433,2.0,311.4239897,1.360294086,-99999.0,'11133222,11111222,99999999' 
TABS,ioos:station:wmo:42050:1,2011-09-01T10:00:00Z,28.8425,-94.2433,2.0,249.4435819,1.110720487,-99999.0,'11133222,11111222,99999999' 
TABS,ioos:station:wmo:42050:1,2011-09-01T10:30:00Z,28.8425,-94.2433,2.0,215.4408295,3.449072339,-99999.0,'11133222,11111222,99999999' 
TABS,ioos:station:wmo:42050:1,2011-09-01T11:00:00Z,28.8425,-94.2433,2.0,167.0052031,3.201999375,-99999.0,'11133222,11111222,99999999' 
TABS,ioos:station:wmo:42050:1,2011-09-01T11:30:00Z,28.8425,-94.2433,2.0,196.2340687,3.541200361,-99999.0,'11133222,11111222,99999999' 
TABS,ioos:station:wmo:42050:1,2011-09-01T12:00:00Z,28.8425,-94.2433,2.0,196.2956831,8.980801746,-99999.0,'11133222,11111222,99999999' 
TABS,ioos:station:wmo:42050:1,2011-09-01T12:30:00Z,28.8425,-94.2433,2.0,200.3058845,12.88050077,-99999.0,'11111222,11111222,99999999' 
TABS,ioos:station:wmo:42050:1,2011-09-01T13:00:00Z,28.8425,-94.2433,2.0,195.6261277,15.29533589,-99999.0,'11111222,11111222,99999999' 
TABS,ioos:station:wmo:42050:1,2011-09-01T13:30:00Z,28.8425,-94.2433,2.0,194.900557,14.46647158,-99999.0,'11111222,11111222,99999999' 
TABS,ioos:station:wmo:42050:1,2011-09-01T14:00:00Z,28.8425,-94.2433,2.0,204.4527745,15.65416558,-99999.0,'11111222,11111222,99999999' 
TABS,ioos:station:wmo:42050:1,2011-09-01T14:30:00Z,28.8425,-94.2433,2.0,210.8916232,19.1461171,-99999.0,'11111222,11111222,99999999' 
TABS,ioos:station:wmo:42050:1,2011-09-01T15:00:00Z,28.8425,-94.2433,2.0,213.1430666,21.50947931,-99999.0,'11111222,11111222,99999999' 
TABS,ioos:station:wmo:42050:1,2011-09-01T15:30:00Z,28.8425,-94.2433,2.0,224.2280022,19.42598517,-99999.0,'11111222,11111222,99999999' 
TABS,ioos:station:wmo:42050:1,2011-09-01T16:00:00Z,28.8425,-94.2433,2.0,233.7706909,17.34308508,-99999.0,'11111222,11111222,99999999' 
TABS,ioos:station:wmo:42050:1,2011-09-01T16:30:00Z,28.8425,-94.2433,2.0,231.7042245,17.92754863,-99999.0,'11111222,11111222,99999999' 
TABS,ioos:station:wmo:42050:1,2011-09-01T17:00:00Z,28.8425,-94.2433,2.0,236.5407597,13.74835627,-99999.0,'11111222,11111222,99999999' 
TABS,ioos:station:wmo:42050:1,2011-09-01T17:30:00Z,28.8425,-94.2433,2.0,249.3373767,15.78536664,-99999.0,'11111222,11111222,99999999' 
TABS,ioos:station:wmo:42050:1,2011-09-01T18:00:00Z,28.8425,-94.2433,2.0,254.2119972,17.45859387,-99999.0,'11111222,11111222,99999999' 
TABS,ioos:station:wmo:42050:1,2011-09-01T18:30:00Z,28.8425,-94.2433,2.0,259.6681941,19.29279658,-99999.0,'11111222,11111222,99999999' 
TABS,ioos:station:wmo:42050:1,2011-09-01T19:00:00Z,28.8425,-94.2433,2.0,264.2307227,23.47890969,-99999.0,'11111222,11111222,99999999' 
TABS,ioos:station:wmo:42050:1,2011-09-01T19:30:00Z,28.8425,-94.2433,2.0,268.742017,25.51614587,-99999.0,'11111222,11111222,99999999' 
TABS,ioos:station:wmo:42050:1,2011-09-01T20:00:00Z,28.8425,-94.2433,2.0,275.277088,25.22690627,-99999.0,'11111222,11111222,99999999' 
TABS,ioos:station:wmo:42050:1,2011-09-01T20:30:00Z,28.8425,-94.2433,2.0,272.3978381,27.0136447,-99999.0,'11111222,11111222,99999999' 
TABS,ioos:station:wmo:42050:1,2011-09-01T21:00:00Z,28.8425,-94.2433,2.0,277.9797943,22.04342306,-99999.0,'11111222,11111222,99999999' 
TABS,ioos:station:wmo:42050:1,2011-09-01T21:30:00Z,28.8425,-94.2433,2.0,284.1056171,22.15807076,-99999.0,'11111222,11111222,99999999' 
TABS,ioos:station:wmo:42050:1,2011-09-01T22:00:00Z,28.8425,-94.2433,2.0,282.3761695,21.9295782,-99999.0,'11111222,11111222,99999999' 
TABS,ioos:station:wmo:42050:1,2011-09-01T22:30:00Z,28.8425,-94.2433,2.0,282.1296808,23.17741357,-99999.0,'11111222,11111222,99999999' 
TABS,ioos:station:wmo:42050:1,2011-09-01T23:00:00Z,28.8425,-94.2433,2.0,275.9528664,23.33582011,-99999.0,'11111222,11111222,99999999' 
TABS,ioos:station:wmo:42050:1,2011-09-01T23:30:00Z,28.8425,-94.2433,2.0,275.4716013,20.24221826,-99999.0,'11111222,11111222,99999999' 
TABS,ioos:station:wmo:42050:1,2011-09-02T00:00:00Z,28.8425,-94.2433,2.0,264.0288974,21.91890508,-99999.0,'11111222,11111222,99999999' 
TABS,ioos:station:wmo:42050:1,2011-09-02T00:30:00Z,28.8425,-94.2433,2.0,256.1557272,20.22758513,-99999.0,'11111222,11111222,99999999' 
TABS,ioos:station:wmo:42050:1,2011-09-02T01:00:00Z,28.8425,-94.2433,2.0,251.396394,24.76390317,-99999.0,'11111222,11111222,99999999' 
TABS,ioos:station:wmo:42050:1,2011-09-02T01:30:00Z,28.8425,-94.2433,2.0,242.9224314,26.51635344,-99999.0,'11111222,11111222,99999999' 
TABS,ioos:station:wmo:42050:1,2011-09-02T02:00:00Z,28.8425,-94.2433,2.0,243.5315779,31.70301721,-99999.0,'11111222,11111222,99999999' 
TABS,ioos:station:wmo:42050:1,2011-09-02T02:30:00Z,28.8425,-94.2433,2.0,247.6011376,32.25331766,-99999.0,'11111222,11111222,99999999' 
TABS,ioos:station:wmo:42050:1,2011-09-02T03:00:00Z,28.8425,-94.2433,2.0,245.6656642,34.92255002,-99999.0,'11111222,11111222,99999999' 
TABS,ioos:station:wmo:42050:1,2011-09-02T03:30:00Z,28.8425,-94.2433,2.0,248.5540521,35.28279467,-99999.0,'11111222,11111222,99999999' 
TABS,ioos:station:wmo:42050:1,2011-09-02T04:00:00Z,28.8425,-94.2433,2.0,253.2730677,38.18566485,-99999.0,'11111222,11111222,99999999' 
TABS,ioos:station:wmo:42050:1,2011-09-02T04:30:00Z,28.8425,-94.2433,2.0,251.5829175,39.72453398,-99999.0,'11111222,11111222,99999999' 
TABS,ioos:station:wmo:42050:1,2011-09-02T05:00:00Z,28.8425,-94.2433,2.0,252.4290734,38.35963112,-99999.0,'11111222,11111222,99999999' 
TABS,ioos:station:wmo:42050:1,2011-09-02T05:30:00Z,28.8425,-94.2433,2.0,244.9733397,36.80553491,-99999.0,'11111222,11111222,99999999' 
TABS,ioos:station:wmo:42050:1,2011-09-02T06:00:00Z,28.8425,-94.2433,2.0,241.9592013,37.8647118,-99999.0,'11111222,11111222,99999999' 
TABS,ioos:station:wmo:42050:1,2011-09-02T06:30:00Z,28.8425,-94.2433,2.0,255.4727352,37.95336612,-99999.0,'11111222,11111222,99999999' 
TABS,ioos:station:wmo:42050:1,2011-09-02T07:00:00Z,28.8425,-94.2433,2.0,251.0987911,39.66892234,-99999.0,'11111222,11111222,99999999' 
TABS,ioos:station:wmo:42050:1,2011-09-02T07:30:00Z,28.8425,-94.2433,2.0,247.2409889,40.015502,-99999.0,'11111222,11111222,99999999' 
TABS,ioos:station:wmo:42050:1,2011-09-02T08:00:00Z,28.8425,-94.2433,2.0,259.2670318,39.89793102,-99999.0,'11111222,11111222,99999999' 
TABS,ioos:station:wmo:42050:1,2011-09-02T08:30:00Z,28.8425,-94.2433,2.0,254.5344317,38.51450766,-99999.0,'11111222,11111222,99999999' 
TABS,ioos:station:wmo:42050:1,2011-09-02T09:00:00Z,28.8425,-94.2433,2.0,251.9090458,42.09067593,-99999.0,'11111222,11111222,99999999' 
TABS,ioos:station:wmo:42050:1,2011-09-02T09:30:00Z,28.8425,-94.2433,2.0,255.0323486,40.15222285,-99999.0,'11111222,11111222,99999999' 
TABS,ioos:station:wmo:42050:1,2011-09-02T10:00:00Z,28.8425,-94.2433,2.0,255.3822555,41.13130681,-99999.0,'11111222,11111222,99999999' 
TABS,ioos:station:wmo:42050:1,2011-09-02T10:30:00Z,28.8425,-94.2433,2.0,249.1857028,46.54773571,-99999.0,'11111222,11111222,99999999' 
TABS,ioos:station:wmo:42050:1,2011-09-02T11:00:00Z,28.8425,-94.2433,2.0,248.1312029,47.62717292,-99999.0,'11111222,11111222,99999999' 
TABS,ioos:station:wmo:42050:1,2011-09-02T11:30:00Z,28.8425,-94.2433,2.0,244.0029688,43.27898913,-99999.0,'11111222,11111222,99999999' 
TABS,ioos:station:wmo:42050:1,2011-09-02T12:00:00Z,28.8425,-94.2433,2.0,250.2829536,45.380552,-99999.0,'11111222,11111222,99999999' 
TABS,ioos:station:wmo:42050:1,2011-09-02T12:30:00Z,28.8425,-94.2433,2.0,246.7054418,39.34734044,-99999.0,'11111222,11111222,99999999' 
TABS,ioos:station:wmo:42050:1,2011-09-02T13:00:00Z,28.8425,-94.2433,2.0,241.9216305,42.68352961,-99999.0,'11111222,11111222,99999999' 
TABS,ioos:station:wmo:42050:1,2011-09-02T13:30:00Z,28.8425,-94.2433,2.0,239.1873673,45.40955406,-99999.0,'11111222,11111222,99999999' 
TABS,ioos:station:wmo:42050:1,2011-09-02T14:00:00Z,28.8425,-94.2433,2.0,242.2403928,37.55173764,-99999.0,'11111222,11111222,99999999' 
TABS,ioos:station:wmo:42050:1,2011-09-02T14:30:00Z,28.8425,-94.2433,2.0,240.0734465,36.8422217,-99999.0,'11111222,11111222,99999999' 
TABS,ioos:station:wmo:42050:1,2011-09-02T15:00:00Z,28.8425,-94.2433,2.0,240.6671004,47.05255466,-99999.0,'11111222,11111222,99999999' 
TABS,ioos:station:wmo:42050:1,2011-09-02T15:30:00Z,28.8425,-94.2433,2.0,243.599347,51.32244441,-99999.0,'11111222,11111222,99999999' 
TABS,ioos:station:wmo:42050:1,2011-09-02T16:00:00Z,28.8425,-94.2433,2.0,241.2459046,45.31790926,-99999.0,'11111222,11111222,99999999' 
TABS,ioos:station:wmo:42050:1,2011-09-02T16:30:00Z,28.8425,-94.2433,2.0,245.3898697,47.18614733,-99999.0,'11111222,11111222,99999999' 
TABS,ioos:station:wmo:42050:1,2011-09-02T17:00:00Z,28.8425,-94.2433,2.0,246.7126656,44.26607731,-99999.0,'11111222,11111222,99999999' 
TABS,ioos:station:wmo:42050:1,2011-09-02T17:30:00Z,28.8425,-94.2433,2.0,249.3948225,41.25936015,-99999.0,'11111222,11111222,99999999' 
TABS,ioos:station:wmo:42050:1,2011-09-02T18:00:00Z,28.8425,-94.2433,2.0,251.8147761,49.9865992,-99999.0,'11111222,11111222,99999999' 
TABS,ioos:station:wmo:42050:1,2011-09-02T18:30:00Z,28.8425,-94.2433,2.0,254.8559167,45.55184848,-99999.0,'11111222,11111222,99999999' 
TABS,ioos:station:wmo:42050:1,2011-09-02T19:00:00Z,28.8425,-94.2433,2.0,252.3777533,44.79184859,-99999.0,'11111222,11111222,99999999' 
TABS,ioos:station:wmo:42050:1,2011-09-02T19:30:00Z,28.8425,-94.2433,2.0,249.6799754,45.67218519,-99999.0,'11111222,11111222,99999999' 
TABS,ioos:station:wmo:42050:1,2011-09-02T20:00:00Z,28.8425,-94.2433,2.0,257.2957448,40.47073511,-99999.0,'11111222,11111222,99999999' 
TABS,ioos:station:wmo:42050:1,2011-09-02T20:30:00Z,28.8425,-94.2433,2.0,253.0648804,42.8793715,-99999.0,'11111222,11111222,99999999' 
TABS,ioos:station:wmo:42050:1,2011-09-02T21:00:00Z,28.8425,-94.2433,2.0,256.9623531,50.35805,-99999.0,'11111222,11111222,99999999' 
TABS,ioos:station:wmo:42050:1,2011-09-02T21:30:00Z,28.8425,-94.2433,2.0,256.9623531,50.35805,-99999.0,'11111222,11111222,99999999' 
TABS,ioos:station:wmo:42050:1,2011-09-02T22:00:00Z,28.8425,-94.2433,2.0,256.6144858,53.9967675,-99999.0,'11111222,11111222,99999999' 
TABS,ioos:station:wmo:42050:1,2011-09-02T22:30:00Z,28.8425,-94.2433,2.0,254.5451885,50.17416168,-99999.0,'11111222,11111222,99999999' 
TABS,ioos:station:wmo:42050:1,2011-09-02T23:00:00Z,28.8425,-94.2433,2.0,255.7861203,50.1760102,-99999.0,'11111222,11111222,99999999' 
TABS,ioos:station:wmo:42050:1,2011-09-02T23:30:00Z,28.8425,-94.2433,2.0,254.5709446,55.59345465,-99999.0,'11111222,11111222,99999999' 
TABS,ioos:station:wmo:42050:1,2011-09-03T00:00:00Z,28.8425,-94.2433,2.0,251.0924082,50.64243478,-99999.0,'11111222,11111222,99999999' 
TABS,ioos:station:wmo:42050:1,2011-09-03T00:30:00Z,28.8425,-94.2433,2.0,242.4651824,56.56719986,-99999.0,'11111222,11111222,99999999' 
TABS,ioos:station:wmo:42050:1,2011-09-03T01:00:00Z,28.8425,-94.2433,2.0,248.0381773,57.83689566,-99999.0,'11111222,11111222,99999999' 
TABS,ioos:station:wmo:42050:1,2011-09-03T01:30:00Z,28.8425,-94.2433,2.0,249.8968456,55.62905716,-99999.0,'11111222,11111222,99999999' 
TABS,ioos:station:wmo:42050:1,2011-09-03T02:00:00Z,28.8425,-94.2433,2.0,249.8130994,54.62540984,-99999.0,'11111222,11111222,99999999' 
TABS,ioos:station:wmo:42050:1,2011-09-03T02:30:00Z,28.8425,-94.2433,2.0,248.3797076,52.76188113,-99999.0,'11111222,11111222,99999999' 
TABS,ioos:station:wmo:42050:1,2011-09-03T03:00:00Z,28.8425,-94.2433,2.0,242.3376457,52.79429609,-99999.0,'11111222,11111222,99999999' 
TABS,ioos:station:wmo:42050:1,2011-09-03T03:30:00Z,28.8425,-94.2433,2.0,245.7817221,55.80093368,-99999.0,'11111222,11111222,99999999' 
TABS,ioos:station:wmo:42050:1,2011-09-03T04:00:00Z,28.8425,-94.2433,2.0,244.8578993,59.05488718,-99999.0,'11111222,11111222,99999999' 
TABS,ioos:station:wmo:42050:1,2011-09-03T04:30:00Z,28.8425,-94.2433,2.0,248.4082312,56.74144869,-99999.0,'11111222,11111222,99999999' 
TABS,ioos:station:wmo:42050:1,2011-09-03T05:00:00Z,28.8425,-94.2433,2.0,244.9488537,58.21623571,-99999.0,'11111222,11111222,99999999' 
TABS,ioos:station:wmo:42050:1,2011-09-03T05:30:00Z,28.8425,-94.2433,2.0,252.5308027,57.7640511,-99999.0,'11111222,11111222,99999999' 
TABS,ioos:station:wmo:42050:1,2011-09-03T06:00:00Z,28.8425,-94.2433,2.0,247.8939888,56.6545894,-99999.0,'11111222,11111222,99999999' 
TABS,ioos:station:wmo:42050:1,2011-09-03T06:30:00Z,28.8425,-94.2433,2.0,250.9500615,59.2550057,-99999.0,'11111222,11111222,99999999' 
TABS,ioos:station:wmo:42050:1,2011-09-03T07:00:00Z,28.8425,-94.2433,2.0,247.1163731,49.86437305,-99999.0,'11111222,11111222,99999999' 
TABS,ioos:station:wmo:42050:1,2011-09-03T07:30:00Z,28.8425,-94.2433,2.0,247.5770816,55.8418696,-99999.0,'11111222,11111222,99999999' 
TABS,ioos:station:wmo:42050:1,2011-09-03T08:00:00Z,28.8425,-94.2433,2.0,243.1269336,54.13598618,-99999.0,'11111222,11111222,99999999' 
TABS,ioos:station:wmo:42050:1,2011-09-03T08:30:00Z,28.8425,-94.2433,2.0,248.8208131,50.07199017,-99999.0,'11111222,11111222,99999999' 
TABS,ioos:station:wmo:42050:1,2011-09-03T09:00:00Z,28.8425,-94.2433,2.0,243.142674,48.27733423,-99999.0,'11111222,11111222,99999999' 
TABS,ioos:station:wmo:42050:1,2011-09-03T09:30:00Z,28.8425,-94.2433,2.0,243.6171789,54.73027773,-99999.0,'11111222,11111222,99999999' 
TABS,ioos:station:wmo:42050:1,2011-09-03T10:00:00Z,28.8425,-94.2433,2.0,247.909647,51.98606929,-99999.0,'11111222,11111222,99999999' 
TABS,ioos:station:wmo:42050:1,2011-09-03T10:30:00Z,28.8425,-94.2433,2.0,239.4064901,46.66574118,-99999.0,'11111222,11111222,99999999' 
TABS,ioos:station:wmo:42050:1,2011-09-03T11:00:00Z,28.8425,-94.2433,2.0,236.7036488,46.77897391,-99999.0,'11111222,11111222,99999999' 
TABS,ioos:station:wmo:42050:1,2011-09-03T11:30:00Z,28.8425,-94.2433,2.0,239.6434991,46.73770747,-99999.0,'11111222,11111222,99999999' 
TABS,ioos:station:wmo:42050:1,2011-09-03T12:00:00Z,28.8425,-94.2433,2.0,231.8355588,46.75392711,-99999.0,'11111222,11111222,99999999' 
TABS,ioos:station:wmo:42050:1,2011-09-03T12:30:00Z,28.8425,-94.2433,2.0,240.8102738,41.70615902,-99999.0,'11111222,11111222,99999999' 
TABS,ioos:station:wmo:42050:1,2011-09-03T13:00:00Z,28.8425,-94.2433,2.0,237.4236188,40.65611516,-99999.0,'11111222,11111222,99999999' 
TABS,ioos:station:wmo:42050:1,2011-09-03T13:30:00Z,28.8425,-94.2433,2.0,237.5085294,41.88626147,-99999.0,'11111222,11111222,99999999' 
TABS,ioos:station:wmo:42050:1,2011-09-03T14:00:00Z,28.8425,-94.2433,2.0,235.0837493,43.1711026,-99999.0,'11111222,11111222,99999999' 
TABS,ioos:station:wmo:42050:1,2011-09-03T14:30:00Z,28.8425,-94.2433,2.0,238.0006689,37.9691243,-99999.0,'11111222,11111222,99999999' 
TABS,ioos:station:wmo:42050:1,2011-09-03T15:00:00Z,28.8425,-94.2433,2.0,231.3882399,35.14223243,-99999.0,'11111222,11111222,99999999' 
TABS,ioos:station:wmo:42050:1,2011-09-03T17:00:00Z,28.8425,-94.2433,2.0,231.9268862,34.29755822,-99999.0,'11111222,11111222,99999999' 
TABS,ioos:station:wmo:42050:1,2011-09-03T17:30:00Z,28.8425,-94.2433,2.0,229.7242151,37.00134187,-99999.0,'11111222,11111222,99999999' 
TABS,ioos:station:wmo:42050:1,2011-09-03T18:00:00Z,28.8425,-94.2433,2.0,228.2145312,28.87418397,-99999.0,'11111222,11111222,99999999' 
TABS,ioos:station:wmo:42050:1,2011-09-03T18:30:00Z,28.8425,-94.2433,2.0,230.1807174,27.4062949,-99999.0,'11111222,11111222,99999999' 
TABS,ioos:station:wmo:42050:1,2011-09-03T19:00:00Z,28.8425,-94.2433,2.0,228.9036513,26.37972706,-99999.0,'11111222,11111222,99999999' 
TABS,ioos:station:wmo:42050:1,2011-09-03T19:30:00Z,28.8425,-94.2433,2.0,220.475989,21.87531943,-99999.0,'11111222,11111222,99999999' 
TABS,ioos:station:wmo:42050:1,2011-09-03T20:00:00Z,28.8425,-94.2433,2.0,210.9226284,19.24557612,-99999.0,'11111222,11111222,99999999' 
TABS,ioos:station:wmo:42050:1,2011-09-03T20:30:00Z,28.8425,-94.2433,2.0,214.2192385,19.80918979,-99999.0,'11111222,11111222,99999999' 
TABS,ioos:station:wmo:42050:1,2011-09-03T21:00:00Z,28.8425,-94.2433,2.0,199.1772692,15.86015448,-99999.0,'11111222,11111222,99999999' 
TABS,ioos:station:wmo:42050:1,2011-09-03T21:30:00Z,28.8425,-94.2433,2.0,230.397206,14.80883858,-99999.0,'11111222,11111222,99999999' 
TABS,ioos:station:wmo:42050:1,2011-09-03T22:00:00Z,28.8425,-94.2433,2.0,204.9840558,9.565066649,-99999.0,'11133222,11111222,99999999' 
TABS,ioos:station:wmo:42050:1,2011-09-03T22:30:00Z,28.8425,-94.2433,2.0,210.4733138,7.216924553,-99999.0,'11133222,11111222,99999999' 
TABS,ioos:station:wmo:42050:1,2011-09-03T23:00:00Z,28.8425,-94.2433,2.0,195.7017268,5.173045525,-99999.0,'11133222,11111222,99999999' 
TABS,ioos:station:wmo:42050:1,2011-09-03T23:30:00Z,28.8425,-94.2433,2.0,186.2360027,10.95482542,-99999.0,'11111222,11111222,99999999' 
TABS,ioos:station:wmo:42050:1,2011-09-04T00:00:00Z,28.8425,-94.2433,2.0,85.100919,5.620533782,-99999.0,'11133222,11111222,99999999' 
TABS,ioos:station:wmo:42050:1,2011-09-04T00:30:00Z,28.8425,-94.2433,2.0,134.2041731,4.073327878,-99999.0,'11133222,11111222,99999999' 
TABS,ioos:station:wmo:42050:1,2011-09-04T01:00:00Z,28.8425,-94.2433,2.0,164.6293393,9.582755345,-99999.0,'11133222,11111222,99999999' 
TABS,ioos:station:wmo:42050:1,2011-09-04T04:30:00Z,28.8425,-94.2433,2.0,116.8976923,29.2661511,-99999.0,'11111222,11111222,99999999' 
TABS,ioos:station:wmo:42050:1,2011-09-04T05:00:00Z,28.8425,-94.2433,2.0,127.8799867,29.60860179,-99999.0,'11111222,11111222,99999999' 
TABS,ioos:station:wmo:42050:1,2011-09-04T05:30:00Z,28.8425,-94.2433,2.0,145.6204175,27.89234483,-99999.0,'11111222,11111222,99999999' 
TABS,ioos:station:wmo:42050:1,2011-09-04T06:00:00Z,28.8425,-94.2433,2.0,129.3933302,24.02930294,-99999.0,'11111222,11111222,99999999' 
TABS,ioos:station:wmo:42050:1,2011-09-04T06:30:00Z,28.8425,-94.2433,2.0,139.8130177,30.59124875,-99999.0,'11111222,11111222,99999999' 
TABS,ioos:station:wmo:42050:1,2011-09-04T07:00:00Z,28.8425,-94.2433,2.0,149.7185787,28.22037916,-99999.0,'11111222,11111222,99999999' 
TABS,ioos:station:wmo:42050:1,2011-09-04T07:30:00Z,28.8425,-94.2433,2.0,133.1156793,31.39837575,-99999.0,'11111222,11111222,99999999' 
TABS,ioos:station:wmo:42050:1,2011-09-04T08:00:00Z,28.8425,-94.2433,2.0,133.0679124,32.51003691,-99999.0,'11111222,11111222,99999999' 
TABS,ioos:station:wmo:42050:1,2011-09-04T08:30:00Z,28.8425,-94.2433,2.0,125.5086526,34.51974073,-99999.0,'11111222,11111222,99999999' 
TABS,ioos:station:wmo:42050:1,2011-09-04T09:00:00Z,28.8425,-94.2433,2.0,124.2849377,34.72333077,-99999.0,'11111222,11111222,99999999' 
TABS,ioos:station:wmo:42050:1,2011-09-04T09:30:00Z,28.8425,-94.2433,2.0,127.3375058,31.60705301,-99999.0,'11111222,11111222,99999999' 
TABS,ioos:station:wmo:42050:1,2011-09-04T10:00:00Z,28.8425,-94.2433,2.0,122.0180141,33.4598939,-99999.0,'11111222,11111222,99999999' 
TABS,ioos:station:wmo:42050:1,2011-09-04T10:30:00Z,28.8425,-94.2433,2.0,122.3366335,30.06204251,-99999.0,'11111222,11111222,99999999' 
TABS,ioos:station:wmo:42050:1,2011-09-04T11:00:00Z,28.8425,-94.2433,2.0,127.2800164,28.21472311,-99999.0,'11111222,11111222,99999999' 
TABS,ioos:station:wmo:42050:1,2011-09-04T11:30:00Z,28.8425,-94.2433,2.0,123.7407153,31.32670586,-99999.0,'11111222,11111222,99999999' 
TABS,ioos:station:wmo:42050:1,2011-09-04T12:00:00Z,28.8425,-94.2433,2.0,129.9669565,29.98379562,-99999.0,'11111222,11111222,99999999' 
TABS,ioos:station:wmo:42050:1,2011-09-04T12:30:00Z,28.8425,-94.2433,2.0,127.1354414,29.76631989,-99999.0,'11111222,11111222,99999999' 
TABS,ioos:station:wmo:42050:1,2011-09-04T13:00:00Z,28.8425,-94.2433,2.0,124.8479345,31.29148127,-99999.0,'11111222,11111222,99999999' 
TABS,ioos:station:wmo:42050:1,2011-09-04T13:30:00Z,28.8425,-94.2433,2.0,121.427946,35.13435356,-99999.0,'11111222,11111222,99999999' 
TABS,ioos:station:wmo:42050:1,2011-09-04T14:00:00Z,28.8425,-94.2433,2.0,129.0912227,32.76462269,-99999.0,'11111222,11111222,99999999' 
TABS,ioos:station:wmo:42050:1,2011-09-04T14:30:00Z,28.8425,-94.2433,2.0,123.3464064,30.52570065,-99999.0,'11111222,11111222,99999999' 
TABS,ioos:station:wmo:42050:1,2011-09-04T15:00:00Z,28.8425,-94.2433,2.0,140.8602344,30.95628692,-99999.0,'11111222,11111222,99999999' 
TABS,ioos:station:wmo:42050:1,2011-09-04T15:30:00Z,28.8425,-94.2433,2.0,129.1237595,33.35980965,-99999.0,'11111222,11111222,99999999' 
TABS,ioos:station:wmo:42050:1,2011-09-04T16:00:00Z,28.8425,-94.2433,2.0,142.4797024,38.24046286,-99999.0,'11111222,11111222,99999999' 
TABS,ioos:station:wmo:42050:1,2011-09-04T16:30:00Z,28.8425,-94.2433,2.0,146.0160834,31.37980242,-99999.0,'11111222,11111222,99999999' 
TABS,ioos:station:wmo:42050:1,2011-09-04T17:00:00Z,28.8425,-94.2433,2.0,142.7617054,38.2727906,-99999.0,'11111222,11111222,99999999' 
TABS,ioos:station:wmo:42050:1,2011-09-04T17:30:00Z,28.8425,-94.2433,2.0,149.6310046,34.85210611,-99999.0,'11111222,11111222,99999999' 
TABS,ioos:station:wmo:42050:1,2011-09-04T18:00:00Z,28.8425,-94.2433,2.0,146.3275106,35.89187791,-99999.0,'11111222,11111222,99999999' 
TABS,ioos:station:wmo:42050:1,2011-09-04T18:30:00Z,28.8425,-94.2433,2.0,159.4045156,29.02504091,-99999.0,'11111222,11111222,99999999' 
TABS,ioos:station:wmo:42050:1,2011-09-04T19:00:00Z,28.8425,-94.2433,2.0,154.9326436,32.33564751,-99999.0,'11111222,11111222,99999999' 
TABS,ioos:station:wmo:42050:1,2011-09-04T19:30:00Z,28.8425,-94.2433,2.0,156.8339563,27.60586894,-99999.0,'11111222,11111222,99999999' 
TABS,ioos:station:wmo:42050:1,2011-09-04T20:00:00Z,28.8425,-94.2433,2.0,151.6574829,27.97325151,-99999.0,'11111222,11111222,99999999' 
TABS,ioos:station:wmo:42050:1,2011-09-04T20:30:00Z,28.8425,-94.2433,2.0,147.8799876,28.6443799,-99999.0,'11111222,11111222,99999999' 